默认 日期 大小 文件数 浏览量 最新下载 xml
mastery磁力链接相关资源由用户搜索指令自动获取,结果来源于网络,本站不存储任何资料,亦不承担任何责任,请于24小时内删除,搜索到2796个磁力,用时3ms。
    {"2 Girls Teach Sex - Sexual Mastery Club Month 2.rar": 1498602011}
创建时间: 2018-11-24 12:34:40 大小:1.4 GB 文件数量:1 热度:10 最近下载:2025-08-02 10:32:04
    {"Conclusion": {"See ya.mp4": 13031255}, "41. 3D Effects": {"07. Adding cast shadows to 3D type.mp4": 13628309, "06. Creating live, editable 3D type.mp4": 15420873, "04. Lighting and shading a 3D object.mp4": 11907898, "09. Mapping artwork onto a 3D object ...
创建时间: 2018-11-24 15:38:09 大小:1.7 GB 文件数量:196 热度:9 最近下载:2025-01-12 11:01:40
    {"desktop.ini": 363, "Cover - 5th agreement.jpg": 57914, "!Playlist - The Fifth Agreement.m3u": 897, "12 - Becoming a Seer - The Fifth Agreement.mp3": 17638002, "01 - In the Beginning - The Fifth Agreement.mp3": 12083911, "03 - The Story of You - The Fifth ...
创建时间: 2018-11-24 15:45:58 大小:189.01 MB 文件数量:18 热度:12 最近下载:2025-01-28 12:47:02
    {"dlfeb.com.Oracle.SQL.Developer.Data.Modeler.for.Database.Design.Mastery.Oracle.Press.pdf": 24228977}
创建时间: 2018-11-24 19:19:05 大小:23.11 MB 文件数量:1 热度:14 最近下载:2025-09-13 15:12:02
    {"CD1": {"Info.txt": 4942, "03 - Angelina.mp3": 9025939, "05 - La Visita.mp3": 8196292, "09 - The Mystery.mp3": 9503463, "02 - Tall Fiddler.mp3": 5969621, "04 - Endless Road.mp3": 11026927, "06 - Windy & Warm.mp3": 6866143, "10 - Lewis & Clark.mp3": ...
创建时间: 2018-11-24 22:36:09 大小:239.69 MB 文件数量:30 热度:7 最近下载:2023-04-19 06:40:04
    {"SCM DISC 1.mp3": 6222584, "SCM DISC 2.mp3": 6801896, "SCM DISC 3 pt1.mp3": 1640304, "SCM DISC 3 pt2.mp3": 1019232, "Getting Started in a New City.pdf": 183520, "Torrent Downloaded from Glodls.to.txt": 237, "SCM DISC 1.mp4_20171019_001755.695.jpg": 20121, ...
创建时间: 2018-11-25 08:29:24 大小:15.63 MB 文件数量:20 热度:15 最近下载:2025-09-17 19:53:03
    ... Lecture_ $10 Coupon for Swarm Mastery.html": 1732, "088 Bonus Lecture_ ...
创建时间: 2018-11-25 10:51:08 大小:1.58 GB 文件数量:164 热度:7 最近下载:2023-04-19 09:20:02
    {"01_-_Note_Names.avi": 76294144, "10_-_Conclusion.avi": 2619392, "00_-_Introduction.avi": 8658944, "02_-_Tonic_Shapes.avi": 26898432, "05_-_Chord_Shapes.avi": 69132288, "03_-_Transposition_Drills.avi": 42174464, "04_-_Major_Scale_Templates.avi": 74899456, ...
创建时间: 2018-11-25 14:16:32 大小:363.63 MB 文件数量:11 热度:11 最近下载:2025-08-09 15:22:03
    ... cover_cd.jpg": 14773, "01 - The Mastery of Love.mp3": 909215, "02 - ... Love.mp3": 6776944, "03 - The Mastery of Love.mp3": 7216219, "04 ... - The Mastery of Love.mp3": 4517216, "05 ... - The Mastery of Love.mp3": 7901254, "06 ...
创建时间: 2018-11-25 16:12:09 大小:70.47 MB 文件数量:17 热度:9 最近下载:2025-08-09 23:44:02
    {"6. PHP": {"1. Installing PHP.mp4": 79973648, "1. Installing PHP.vtt": 3101, "2. Package Manager for PHP.mp4": 62376162, "2. Package Manager for PHP.vtt": 3282}, "5. Database": {"1. Installing Mysql.mp4": 36615317, "1. Installing Mysql.vtt": 1793, "1.1 ...
创建时间: 2018-11-25 18:46:54 大小:2.94 GB 文件数量:93 热度:13 最近下载:2025-02-11 14:02:02
    {"04-the-style-edit": {"attached_files": {"031-does-it-read-well": {"Lecture-31-Does-It-Read-Well.pdf": 109013}, "039-could-it-end-better": {"Lecture-39-Could-It-End-Better.pdf": 97599}, "033-is-there-any-clutter": {"Lecture-33-Is-There-Any-Clutter.pdf": ...
创建时间: 2018-11-25 22:45:31 大小:3.97 GB 文件数量:88 热度:6 最近下载:2024-12-18 11:49:02
    {"Vince Kelvin - Power Pickup Seduction Mastery.rar": 4507169509}
创建时间: 2018-11-26 00:36:42 大小:4.2 GB 文件数量:1 热度:17 最近下载:2025-08-03 13:22:06
    {"Torrent downloaded from demonoid.pw.txt": 46, "Torrent Downloaded From ExtraTorrent.cc.txt": 352, "facebook-ads-facebook-marketing-mastery-guide.tgz": 408539520}
创建时间: 2018-11-26 01:42:54 大小:389.61 MB 文件数量:3 热度:9 最近下载:2025-05-13 05:00:01
    ... . Catacombs.mp3": 11565214, "10. The Mastery.mp3": 16784482, "02. The Real ...
创建时间: 2018-11-26 08:16:57 大小:118.42 MB 文件数量:11 热度:7 最近下载:2023-04-19 16:40:15
    {"Conclusion": {"Conclusion-See ya.mov": 12725189}, "42. Actions": {"Actions-Introducing the Actions panel.mov": 11186315, "Three incentives for recording actions.mov": 11527114, "Actions-Saving and loading your actions.mov": 9508136, "Actions-Adding steps ...
创建时间: 2018-11-26 09:08:35 大小:7.05 GB 文件数量:242 热度:10 最近下载:2025-03-28 13:32:02
    {"Torrent downloaded from demonoid.pw.txt": 46, "Torrent Downloaded From ExtraTorrent.cc.txt": 352, "YouTube Money Mastery Best Ways to Monetize YouTube.tgz": 823649017}
创建时间: 2018-11-26 12:40:36 大小:785.49 MB 文件数量:3 热度:7 最近下载:2025-02-08 13:22:02
    {"Read Me.txt": 80, "TutsGalaxy.com.txt": 41, "Torrent_downloaded_from_Demonoid_-_www.demonoid.pw_.txt": 59, "Sales Funnels Mastery 20 Sales Funnels That Boost Sales.zip": 388292907}
创建时间: 2018-11-26 16:34:11 大小:370.31 MB 文件数量:4 热度:11 最近下载:2025-03-09 23:03:03
    {"1_-_Introduction": {"1_-_Introduction.mp4": 49877582, "5_-_How_Long_Should_Your_Promo_Be.mp4": 16358237, "2_-_Action_Step_1_-_Introduce_Yourself_.mp4": 822611, "7_-_What_You_Need_to_Remember_When_Using_a_Professional_Voice_Over.mp4": 4181311, "6_- ...
创建时间: 2018-11-26 18:16:55 大小:271.75 MB 文件数量:25 热度:9 最近下载:2025-01-05 21:47:06
    {"Torrent downloaded from Demonoid.me.txt": 46, "Mastery - The Keys To Success And Long-Term Fulfillment - George Leonard.pdf": 5953770}
创建时间: 2018-11-26 22:15:10 大小:5.68 MB 文件数量:2 热度:7 最近下载:2025-03-09 02:55:03
    {"folder.jpg": 58393, "auCDtect.txt": 11260, "1.03. Angelina.flac": 20221428, "2.06. Tapestry.flac": 28123216, "1.05. La Visita.flac": 17209794, "1.09. The Mystery.flac": 23946199, "2.02. Ruby's Eyes.flac": 18953579, "1.02. Tall Fiddler.flac": 17167287, "1 ...
创建时间: 2018-11-28 09:29:31 大小:578.2 MB 文件数量:30 热度:11 最近下载:2024-08-06 03:27:01